Regional Weather Roundup
Issued by NWS State College, PA

Home | Current Version | Previous Version | Text Only | Print | Product List | Glossary On
Versions: 1 2 3 4 5 6 7 8 9 10 11 12 13 14 15 16 17 18 19 20 21 22 23 24 25 26 27 28 29 30 31 32 33 34 35 36 37 38 39 40 41 42 43 44 45 46 47 48 49 50
645
ASUS41 KCTP 231403
RWRCTP

REGIONAL WEATHER ROUNDUP
NATIONAL WEATHER SERVICE STATE COLLEGE PA
900 AM EST THU FEB 23 2017

Note: "fair" indicates few or no clouds below 12,000 feet with no
significant weather and/or obstructions to visibility.

* = STATION THAT DOES NOT REPORT PRECIPITATION /E.G. RAIN...SNOW...ETC/
    THUNDER OR FOG.

PAZ002>004-007>009-013>016-020>023-029>032-231500-
WESTERN PENNSYLVANIA

CITY           SKY/WX    TMP DP  RH WIND       PRES   REMARKS
ERIE           CLOUDY    60  53  77 S20G26    29.73R
MEADVILLE      CLOUDY    56  52  86 S10       29.77R
FRANKLIN*      CLOUDY    55  52  88 SW9       29.81S
NEW CASTLE     CLOUDY    57  54  89 VRB5      29.81R
BEAVER COUNTY  CLOUDY    57  54  88 SW9G16    29.82R
BUTLER*        CLOUDY    55  52  88 SW9       29.83S
PITTSBURGH INT CLOUDY    58  55  90 SW10      29.82R
PITTSBURGH     CLOUDY    57  52  83 S12       29.83R
INDIANA*       CLOUDY    55  54  94 SW8       29.86S
LATROBE        PTSUNNY   57  55  94 SW16      29.85S
WASHINGTON CO* CLOUDY    57  54  88 SW9       29.86S
$$

PAZ004>006-010>012-017>019-024>028-033>037-041-042-045-046-049>053-231500-
CENTRAL PENNSYLVANIA

CITY           SKY/WX    TMP DP  RH WIND       PRES   REMARKS
BRADFORD       CLOUDY    52  52 100 SW8       29.79R FOG
DUBOIS         CLOUDY    54  50  86 SW8       29.81S
CLEARFIELD       N/A    N/A N/A N/A MISG      29.83S
JOHNSTOWN      CLOUDY    56  53  90 SW10G18   29.85S
ALTOONA        CLOUDY    59  53  80 S7        29.86S
STATE COLLEGE  CLOUDY    50  43  76 CALM      29.85S
WILLIAMSPORT   MOSUNNY   42  37  82 CALM      29.86F
SELINSGROVE    SUNNY     41  38  89 CALM      29.88S FOG
FT INDIANTOWN  FOG       43  43 100 CALM      29.89F VSB 1
CAPITAL CITY   FOG       48  45  89 CALM      29.89F VSB 1/4
HARRISBURG     FOG       45  45 100 SE6       29.89S VSB<1/4
YORK           FOG       48  48 100 CALM      29.90R VSB 1/2
$$

PAZ038>040-043-044-047-048-054-055-060>062-067>071-231500-
EASTERN PENNSYLVANIA

CITY           SKY/WX    TMP DP  RH WIND       PRES   REMARKS
SCRANTON       MOSUNNY   48  41  76 NE5       29.84F
MOUNT POCONO   SUNNY     50  48  93 W5        29.86S
ALLENTOWN      CLOUDY    44  39  82 CALM      29.89F HAZE
QUAKERTOWN*    CLOUDY    46  46 100 CALM      29.90F VSB<1/4
READING        FOG       46  46 100 NW5       29.90R VSB 1/4
LANCASTER      FOG       49  49 100 CALM      29.91R VSB 1/4
COATESVILLE    FOG       50  50 100 VRB5      29.91S VSB<1/4
POTTSTOWN      FOG       47  47 100 CALM      29.91S VSB 1/4
BLUE BELL      CLOUDY    48  48 100 S3        29.90S VSB 3/4
DOYLESTOWN     FOG       49  49 100 CALM      29.89S VSB 1/2
WILLOW GROVE   NOT AVBL
NORTH PHILA    FOG       52  51  97 S3        29.92S VSB 3/4
PHILADELPHIA   CLOUDY    51  50  96 S5        29.92S FOG
$$




USA.gov is the U.S. government's official web portal to all federal, state and local government web resources and services.